| time (UTC) | temp F | wind direction | speed MPH | gust MPH | rain 1hr in | rain 24hr in | rain mn in | humidity % | barometer mb |
| 20260508060045 | 45 | 0 | 0.0 | 0.0 | 0.00 | 0.00 | 0.00 | 93 | 1017.0 |
| 20260508054541 | 45 | 0 | 0.0 | 0.0 | 0.00 | 0.00 | 0.00 | 93 | 1017.0 |
| 20260508053038 | 46 | 0 | 0.0 | 0.0 | 0.00 | 0.00 | 0.00 | 93 | 1016.9 |
| 20260508051539 | 46 | 0 | 0.0 | 0.0 | 0.00 | 0.00 | 0.00 | 92 | 1017.0 |
| 20260508050051 | 46 | 0 | 0.0 | 0.0 | 0.00 | 0.00 | 0.00 | 92 | 1016.9 |
| 20260508044545 | 47 | 0 | 0.0 | 0.0 | 0.00 | 0.00 | 0.00 | 92 | 1016.8 |
| 20260508043040 | 47 | 0 | 0.0 | 0.0 | 0.00 | 0.00 | 0.00 | 91 | 1017.0 |
| 20260508041540 | 47 | 0 | 0.0 | 0.0 | 0.00 | 0.00 | 0.00 | 90 | 1017.0 |
| 20260508040045 | 47 | 0 | 0.0 | 0.0 | 0.00 | 0.00 | 0.00 | 90 | 1017.3 |
| 20260508034542 | 48 | 0 | 0.0 | 0.0 | 0.00 | 0.00 | 0.00 | 89 | 1017.3 |
| 20260508033042 | 48 | 0 | 0.0 | 0.0 | 0.00 | 0.00 | 0.00 | 87 | 1017.3 |
| 20260508031541 | 49 | 0 | 0.0 | 0.0 | 0.00 | 0.00 | 0.00 | 87 | 1017.2 |
| 20260508030041 | 50 | 0 | 0.0 | 0.0 | 0.00 | 0.00 | 0.00 | 86 | 1017.0 |
| 20260508024551 | 50 | 0 | 0.0 | 0.0 | 0.00 | 0.01 | 0.00 | 85 | 1016.8 |
| 20260508023042 | 51 | 0 | 0.0 | 1.0 | 0.00 | 0.01 | 0.00 | 84 | 1016.8 |
| 20260508021544 | 51 | 0 | 0.0 | 0.0 | 0.00 | 0.01 | 0.00 | 83 | 1016.6 |
| 20260508020046 | 52 | 0 | 0.0 | 1.0 | 0.00 | 0.01 | 0.00 | 81 | 1016.5 |
| 20260508014537 | 53 | 69 | 0.0 | 1.0 | 0.00 | 0.03 | 0.00 | 79 | 1016.5 |
| 20260508013038 | 54 | 0 | 0.0 | 0.0 | 0.00 | 0.03 | 0.00 | 75 | 1016.4 |
| 20260508011548 | 55 | 70 | 0.0 | 1.0 | 0.00 | 0.03 | 0.00 | 72 | 1016.3 |
| 20260508010056 | 57 | 0 | 0.0 | 1.0 | 0.00 | 0.03 | 0.00 | 68 | 1015.9 |
| 20260508004554 | 59 | 0 | 0.0 | 1.0 | 0.00 | 0.04 | 0.00 | 65 | 1015.7 |
| 20260508003041 | 60 | 0 | 0.0 | 1.0 | 0.00 | 0.04 | 0.00 | 57 | 1015.6 |
| 20260508001547 | 62 | 0 | 0.0 | 1.0 | 0.00 | 0.04 | 0.00 | 51 | 1015.5 |
| 20260508000044 | 63 | 81 | 0.0 | 2.0 | 0.00 | 0.04 | 0.00 | 47 | 1015.4 |
| 20260507234541 | 64 | 0 | 1.0 | 6.0 | 0.00 | 0.04 | 0.00 | 45 | 1015.3 |
| 20260507233040 | 66 | 0 | 1.0 | 5.0 | 0.00 | 0.04 | 0.00 | 43 | 1015.3 |
| 20260507231541 | 67 | 87 | 0.0 | 5.0 | 0.00 | 0.04 | 0.00 | 43 | 1015.2 |
| 20260507230039 | 68 | 121 | 0.0 | 3.0 | 0.00 | 0.04 | 0.00 | 42 | 1015.2 |
| 20260507224537 | 67 | 85 | 2.0 | 5.0 | 0.00 | 0.06 | 0.00 | 42 | 1015.1 |
| 20260507223043 | 67 | 63 | 2.0 | 7.0 | 0.00 | 0.06 | 0.00 | 42 | 1015.1 |
| 20260507221539 | 68 | 0 | 1.0 | 3.0 | 0.00 | 0.06 | 0.00 | 41 | 1015.1 |
| 20260507220039 | 67 | 41 | 4.0 | 7.0 | 0.00 | 0.06 | 0.00 | 41 | 1015.2 |
| 20260507214538 | 69 | 115 | 1.0 | 3.0 | 0.00 | 0.06 | 0.00 | 43 | 1015.2 |
| 20260507213035 | 69 | 108 | 1.0 | 5.0 | 0.00 | 0.06 | 0.00 | 42 | 1015.2 |
| 20260507211544 | 69 | 120 | 1.0 | 3.0 | 0.00 | 0.06 | 0.00 | 41 | 1015.1 |
| 20260507210045 | 69 | 7 | 0.0 | 2.0 | 0.00 | 0.06 | 0.00 | 43 | 1015.2 |
| 20260507204548 | 67 | 267 | 2.0 | 9.0 | 0.00 | 0.06 | 0.00 | 45 | 1015.2 |
| 20260507203038 | 68 | 59 | 2.0 | 5.0 | 0.00 | 0.06 | 0.00 | 43 | 1015.3 |
| 20260507201544 | 67 | 70 | 1.0 | 4.0 | 0.00 | 0.06 | 0.00 | 44 | 1015.4 |
| 20260507200043 | 66 | 62 | 3.0 | 7.0 | 0.00 | 0.06 | 0.00 | 42 | 1015.5 |
| 20260507194540 | 67 | 56 | 1.0 | 10.0 | 0.00 | 0.06 | 0.00 | 43 | 1015.3 |
| 20260507193040 | 66 | 257 | 2.0 | 8.0 | 0.00 | 0.06 | 0.00 | 48 | 1015.5 |
| 20260507191539 | 66 | 95 | 2.0 | 11.0 | 0.00 | 0.06 | 0.00 | 49 | 1015.6 |
| 20260507190040 | 66 | 36 | 1.0 | 5.0 | 0.00 | 0.06 | 0.00 | 44 | 1015.8 |
| 20260507184544 | 66 | 139 | 2.0 | 7.0 | 0.00 | 0.06 | 0.00 | 48 | 1015.8 |
| 20260507183042 | 66 | 86 | 2.0 | 7.0 | 0.00 | 0.06 | 0.00 | 44 | 1015.8 |
| 20260507181546 | 65 | 245 | 2.0 | 6.0 | 0.00 | 0.06 | 0.00 | 47 | 1015.9 |
| 20260507180044 | 65 | 96 | 1.0 | 6.0 | 0.00 | 0.06 | 0.00 | 50 | 1016.0 |
| 20260507174539 | 63 | 91 | 2.0 | 10.0 | 0.00 | 0.06 | 0.00 | 48 | 1016.0 |
| 20260507173046 | 65 | 111 | 1.0 | 4.0 | 0.00 | 0.06 | 0.00 | 49 | 1016.2 |
| 20260507171542 | 64 | 207 | 1.0 | 4.0 | 0.00 | 0.06 | 0.00 | 52 | 1016.5 |
| 20260507170039 | 63 | 97 | 3.0 | 14.0 | 0.00 | 0.06 | 0.00 | 51 | 1017.0 |
| 20260507164538 | 63 | 226 | 1.0 | 5.0 | 0.00 | 0.06 | 0.00 | 54 | 1017.0 |
| 20260507163038 | 62 | 74 | 1.0 | 4.0 | 0.00 | 0.06 | 0.00 | 55 | 1016.8 |
| 20260507161546 | 62 | 76 | 0.0 | 8.0 | 0.00 | 0.06 | 0.00 | 56 | 1017.2 |
| 20260507160040 | 60 | 98 | 4.0 | 8.0 | 0.00 | 0.06 | 0.00 | 56 | 1017.2 |
| 20260507154542 | 61 | 246 | 1.0 | 2.0 | 0.00 | 0.06 | 0.00 | 57 | 1016.8 |
| 20260507153049 | 60 | 139 | 2.0 | 8.0 | 0.00 | 0.06 | 0.00 | 61 | 1017.2 |
| 20260507151536 | 60 | 248 | 1.0 | 3.0 | 0.00 | 0.06 | 0.00 | 62 | 1017.2 |
| 20260507150043 | 59 | 146 | 1.0 | 4.0 | 0.00 | 0.06 | 0.00 | 65 | 1017.0 |
| 20260507144546 | 58 | 86 | 0.0 | 3.0 | 0.00 | 0.06 | 0.00 | 68 | 1017.0 |
| 20260507143045 | 57 | 188 | 1.0 | 3.0 | 0.00 | 0.06 | 0.00 | 69 | 1017.2 |
| 20260507141552 | 56 | 321 | 1.0 | 4.0 | 0.00 | 0.06 | 0.00 | 68 | 1017.1 |
| 20260507140108 | 56 | 109 | 1.0 | 5.0 | 0.00 | 0.06 | 0.00 | 72 | 1017.0 |
| 20260507134543 | 55 | 184 | 1.0 | 3.0 | 0.00 | 0.06 | 0.00 | 73 | 1017.0 |
| 20260507133048 | 53 | 244 | 0.0 | 3.0 | 0.00 | 0.06 | 0.00 | 77 | 1016.7 |
| 20260507131539 | 52 | 113 | 0.0 | 3.0 | 0.00 | 0.06 | 0.00 | 81 | 1016.6 |
| 20260507130052 | 51 | 240 | 0.0 | 2.0 | 0.00 | 0.06 | 0.00 | 82 | 1016.6 |
| 20260507124552 | 50 | 115 | 0.0 | 4.0 | 0.00 | 0.19 | 0.00 | 86 | 1016.4 |
| 20260507123052 | 49 | 0 | 0.0 | 1.0 | 0.00 | 0.19 | 0.00 | 88 | 1016.3 |
| 20260507121546 | 49 | 101 | 0.0 | 2.0 | 0.00 | 0.19 | 0.00 | 89 | 1016.3 |
| 20260507120047 | 48 | 72 | 0.0 | 1.0 | 0.00 | 0.19 | 0.00 | 90 | 1016.2 |
| 20260507114546 | 48 | 0 | 0.0 | 1.0 | 0.00 | 0.21 | 0.00 | 90 | 1016.0 |
| 20260507113042 | 47 | 122 | 0.0 | 2.0 | 0.00 | 0.21 | 0.00 | 91 | 1015.9 |
| 20260507111544 | 47 | 0 | 0.0 | 3.0 | 0.00 | 0.21 | 0.00 | 92 | 1015.7 |
| 20260507110047 | 47 | 0 | 0.0 | 1.0 | 0.00 | 0.21 | 0.00 | 93 | 1015.4 |
| 20260507104547 | 47 | 0 | 0.0 | 3.0 | 0.00 | 0.21 | 0.00 | 93 | 1015.2 |
| 20260507103043 | 47 | 0 | 0.0 | 3.0 | 0.00 | 0.21 | 0.00 | 93 | 1015.1 |
| 20260507101546 | 47 | 109 | 0.0 | 4.0 | 0.00 | 0.21 | 0.00 | 93 | 1015.1 |
| 20260507100038 | 48 | 0 | 0.0 | 1.0 | 0.00 | 0.21 | 0.00 | 93 | 1015.1 |
| 20260507094546 | 48 | 0 | 0.0 | 1.0 | 0.00 | 0.21 | 0.00 | 93 | 1015.1 |
| 20260507093046 | 48 | 0 | 0.0 | 2.0 | 0.00 | 0.21 | 0.00 | 93 | 1015.1 |
| 20260507091544 | 49 | 0 | 0.0 | 3.0 | 0.00 | 0.21 | 0.00 | 93 | 1015.0 |
| 20260507090043 | 49 | 0 | 0.0 | 0.0 | 0.00 | 0.21 | 0.00 | 93 | 1015.0 |
| 20260507084541 | 49 | 0 | 0.0 | 1.0 | 0.00 | 0.40 | 0.00 | 93 | 1015.0 |
| 20260507083047 | 50 | 0 | 0.0 | 1.0 | 0.00 | 0.40 | 0.00 | 94 | 1015.0 |
| 20260507081538 | 50 | 0 | 0.0 | 0.0 | 0.00 | 0.40 | 0.00 | 94 | 1015.1 |
| 20260507074545 | 50 | 0 | 0.0 | 0.0 | 0.00 | 0.58 | 0.00 | 94 | 1014.6 |
| 20260507073040 | 50 | 0 | 0.0 | 1.0 | 0.00 | 0.58 | 0.00 | 94 | 1014.6 |
| 20260507071554 | 50 | 0 | 0.0 | 0.0 | 0.00 | 0.58 | 0.00 | 96 | 1014.7 |
| 20260507070042 | 50 | 0 | 0.0 | 0.0 | 0.00 | 0.58 | 0.00 | 96 | 1015.0 |
| 20260507064546 | 50 | 0 | 0.0 | 0.0 | 0.00 | 0.58 | 0.00 | 97 | 1015.1 |
| 20260507063040 | 50 | 0 | 0.0 | 1.0 | 0.00 | 0.58 | 0.00 | 97 | 1015.1 |
| 20260507061538 | 50 | 0 | 0.0 | 1.0 | 0.00 | 0.58 | 0.00 | 97 | 1015.2 |